CW8468 Weather Reports


Display with metric or nautical units.
time (UTC)temp
F
wind
direction
speed
MPH
gust
MPH
rain 1hr
in
rain 24hr
in
rain mn
in
humidity
%
barometer
mb
20260903152003 85 76 1.0 3.0 0.00 0.00 0.00 78 1013.6
20260903151517 85 171 1.0 4.0 0.00 0.00 0.00 78 1013.7
20260903151003 85 99 1.0 4.0 0.00 0.00 0.00 78 1013.7
20260903150502 84 111 1.0 3.0 0.00 0.00 0.00 78 1013.8
20260903150027 84 184 1.0 4.0 0.00 0.00 0.00 79 1013.8
20260903145501 84 116 1.0 3.0 0.00 0.00 0.00 78 1013.9
20260903145002 84 118 2.0 6.0 0.00 0.00 0.00 79 1013.9
20260903144517 84 139 1.0 8.0 0.00 0.00 0.00 79 1013.9
20260903144002 84 159 1.0 4.0 0.00 0.00 0.00 79 1013.8
20260903143501 84 173 1.0 4.0 0.00 0.00 0.00 79 1013.8
20260903143026 84 127 2.0 6.0 0.00 0.00 0.00 80 1013.8
20260903142501 84 110 1.0 6.0 0.00 0.00 0.00 79 1013.8
20260903141516 84 353 2.0 5.0 0.00 0.00 0.00 79 1013.7
20260903141002 84 353 2.0 5.0 0.00 0.00 0.00 80 1013.7
20260903140503 83 104 2.0 5.0 0.00 0.00 0.00 80 1013.8
20260903140026 83 70 1.0 5.0 0.00 0.00 0.00 81 1013.8
20260903135502 83 134 1.0 5.0 0.00 0.00 0.00 81 1013.8
20260903135002 83 143 1.0 3.0 0.00 0.00 0.00 81 1013.7
20260903134517 83 147 1.0 4.0 0.00 0.00 0.00 81 1013.7
20260903134003 83 139 1.0 3.0 0.00 0.00 0.00 82 1013.7
20260903133502 82 163 1.0 6.0 0.00 0.00 0.00 82 1013.6
20260903133025 82 116 1.0 6.0 0.00 0.00 0.00 82 1013.6
20260903131517 82 164 0.0 2.0 0.00 0.00 0.00 82 1013.5
20260903131002 82 104 0.0 2.0 0.00 0.00 0.00 81 1013.5
20260903130502 82 166 0.0 2.0 0.00 0.00 0.00 81 1013.4
20260903130024 81 353 0.0 1.0 0.00 0.00 0.00 80 1013.4
20260903125500 81 353 0.0 2.0 0.00 0.00 0.00 80 1013.4
20260903124515 81 151 1.0 2.0 0.00 0.00 0.00 80 1013.3
20260903124002 81 146 0.0 2.0 0.00 0.00 0.00 79 1013.2
20260903123501 81 185 1.0 4.0 0.00 0.00 0.00 79 1013.1
20260903123025 81 193 1.0 4.0 0.00 0.00 0.00 79 1013.1
20260903122500 82 159 1.0 5.0 0.00 0.00 0.00 79 1013.0
20260903122001 82 161 1.0 4.0 0.00 0.00 0.00 79 1012.9
20260903120025 81 157 1.0 4.0 0.00 0.00 0.00 80 1012.8
20260903115002 82 146 2.0 4.0 0.00 0.00 0.00 81 1012.7
20260903114516 82 157 2.0 6.0 0.00 0.00 0.00 81 1012.7
20260903114002 82 144 2.0 6.0 0.00 0.00 0.00 82 1012.7
20260903113503 82 140 2.0 5.0 0.00 0.00 0.00 82 1012.7
20260903113024 82 131 1.0 3.0 0.00 0.00 0.00 82 1012.7
20260903112502 82 197 1.0 3.0 0.00 0.00 0.00 82 1012.8
20260903112003 82 139 1.0 6.0 0.00 0.00 0.00 82 1012.8
20260903111517 82 202 1.0 6.0 0.00 0.00 0.00 82 1012.8
20260903111003 82 203 1.0 5.0 0.00 0.00 0.00 81 1012.8
20260903110501 82 173 1.0 5.0 0.00 0.00 0.00 81 1012.7
20260903110026 82 353 1.0 3.0 0.00 0.00 0.00 81 1012.7
20260903105002 82 167 2.0 4.0 0.00 0.00 0.00 81 1012.6
20260903104516 82 163 2.0 4.0 0.00 0.00 0.00 82 1012.5
20260903104002 82 181 2.0 5.0 0.00 0.00 0.00 82 1012.4
20260903103500 82 162 2.0 6.0 0.00 0.00 0.00 82 1012.4
20260903103024 82 188 2.0 6.0 0.00 0.00 0.00 82 1012.4
20260903102500 82 353 1.0 4.0 0.00 0.00 0.00 82 1012.3
20260903102002 82 353 1.0 4.0 0.00 0.00 0.00 82 1012.4
20260903100500 82 198 1.0 5.0 0.00 0.00 0.00 82 1012.4
20260903100026 82 160 1.0 5.0 0.00 0.00 0.00 82 1012.4
20260903095500 82 159 1.0 4.0 0.00 0.00 0.00 81 1012.3
20260903095002 82 173 1.0 4.0 0.00 0.00 0.00 81 1012.4
20260903094002 82 197 1.0 5.0 0.00 0.00 0.00 81 1012.3
20260903093501 82 218 2.0 6.0 0.00 0.00 0.00 81 1012.4
20260903093026 83 152 2.0 6.0 0.00 0.00 0.00 81 1012.5
20260903092500 83 353 2.0 6.0 0.00 0.00 0.00 81 1012.5
20260903092001 83 220 2.0 5.0 0.00 0.00 0.00 81 1012.5
20260903091515 83 144 2.0 5.0 0.00 0.00 0.00 81 1012.5
20260903091002 83 162 2.0 6.0 0.00 0.00 0.00 80 1012.4
20260903090500 83 243 2.0 5.0 0.00 0.00 0.00 80 1012.4
20260903090023 83 136 2.0 4.0 0.00 0.00 0.00 80 1012.3
20260903085501 83 196 2.0 7.0 0.00 0.00 0.00 80 1012.3
20260903085002 83 114 2.0 7.0 0.00 0.00 0.00 80 1012.3
20260903084515 83 163 2.0 5.0 0.00 0.00 0.00 80 1012.3
20260903084002 83 157 2.0 6.0 0.00 0.00 0.00 80 1012.3
20260903083500 83 152 2.0 6.0 0.00 0.00 0.00 80 1012.2
20260903083027 83 160 2.0 7.0 0.00 0.00 0.00 80 1012.2
20260903082501 83 187 2.0 6.0 0.00 0.00 0.00 80 1012.2
20260903082002 83 146 2.0 7.0 0.00 0.00 0.00 80 1012.2
20260903081000 83 180 2.0 5.0 0.00 0.00 0.00 80 1012.1
20260903080459 83 217 2.0 5.0 0.00 0.00 0.00 80 1012.2
20260903080023 83 353 2.0 5.0 0.00 0.00 0.00 80 1012.1
20260903075501 83 181 2.0 6.0 0.00 0.00 0.00 80 1012.2
20260903075001 83 165 2.0 6.0 0.00 0.00 0.00 80 1012.1
20260903074515 82 165 3.0 8.0 0.00 0.00 0.00 80 1012.1
20260903074002 82 353 3.0 8.0 0.00 0.00 0.00 81 1012.1
20260903073500 82 158 2.0 8.0 0.00 0.00 0.00 81 1012.1
20260903073026 82 149 3.0 8.0 0.00 0.00 0.00 81 1012.1
20260903072500 82 166 2.0 6.0 0.00 0.00 0.00 81 1012.2
20260903072002 82 229 2.0 7.0 0.00 0.00 0.00 82 1012.2
20260903071515 82 7 2.0 9.0 0.00 0.00 0.00 82 1012.3
20260903071002 82 139 2.0 9.0 0.00 0.00 0.00 82 1012.2
20260903070023 82 197 2.0 7.0 0.00 0.00 0.00 82 1012.3
20260903065459 82 241 2.0 7.0 0.00 0.00 0.00 82 1012.4
20260903065000 82 353 2.0 4.0 0.00 0.00 0.00 83 1012.5
20260903064514 82 163 1.0 4.0 0.00 0.00 0.00 83 1012.6
20260903064000 82 156 1.0 5.0 0.00 0.00 0.00 83 1012.5
20260903063459 82 353 1.0 5.0 0.00 0.00 0.00 83 1012.6
20260903063022 82 353 2.0 6.0 0.00 0.00 0.00 82 1012.5
20260903062459 82 353 2.0 5.0 0.00 0.00 0.00 82 1012.6
20260903062000 83 353 2.0 7.0 0.00 0.00 0.00 82 1012.7
20260903061514 83 168 2.0 7.0 0.00 0.00 0.00 81 1012.8
20260903061000 83 158 1.0 4.0 0.00 0.00 0.00 81 1012.9
20260903060500 83 353 2.0 6.0 0.00 0.00 0.00 81 1013.0
20260903060029 83 111 2.0 9.0 0.00 0.00 0.00 80 1013.2
20260903055504 83 155 2.0 8.0 0.00 0.00 0.00 80 1013.2
20260903055005 83 176 2.0 6.0 0.00 0.00 0.00 80 1013.2
20260903054519 84 145 1.0 4.0 0.00 0.00 0.00 79 1013.3
20260903054005 84 152 2.0 4.0 0.00 0.00 0.00 79 1013.3
20260903053504 84 156 2.0 4.0 0.00 0.00 0.00 78 1013.3
20260903053029 84 161 1.0 6.0 0.00 0.00 0.00 78 1013.4
20260903052505 84 177 2.0 6.0 0.00 0.00 0.00 78 1013.5
20260903052005 84 140 2.0 6.0 0.00 0.00 0.00 77 1013.6
20260903051519 84 173 2.0 5.0 0.00 0.00 0.00 77 1013.7
20260903051006 84 152 2.0 5.0 0.00 0.00 0.00 77 1013.8
20260903050505 85 208 2.0 5.0 0.00 0.00 0.00 77 1013.8
20260903050029 85 183 2.0 6.0 0.00 0.00 0.00 77 1013.8
20260903045504 85 166 1.0 4.0 0.00 0.00 0.00 77 1013.8
20260903045005 85 196 1.0 4.0 0.00 0.00 0.00 77 1013.8
20260903044519 85 129 1.0 4.0 0.00 0.00 0.00 77 1013.8
20260903044006 85 353 1.0 4.0 0.00 0.00 0.00 77 1013.8
20260903043505 85 166 1.0 4.0 0.00 0.00 0.00 77 1013.9
20260903043028 85 228 1.0 4.0 0.00 0.00 0.00 77 1013.9
20260903042504 85 167 1.0 4.0 0.00 0.00 0.00 77 1013.9
20260903042005 85 160 2.0 7.0 0.00 0.00 0.00 77 1013.9
20260903041519 85 241 2.0 8.0 0.00 0.00 0.00 77 1013.8
20260903041005 85 353 2.0 8.0 0.00 0.00 0.00 77 1013.7
20260903040030 85 139 3.0 8.0 0.00 0.00 0.00 77 1013.4
20260903035504 85 131 2.0 8.0 0.00 0.00 0.00 77 1013.3
20260903035006 85 192 2.0 6.0 0.00 0.00 0.00 77 1013.3
20260903034519 85 154 2.0 6.0 0.00 0.00 0.00 77 1013.3
20260903034006 85 151 2.0 5.0 0.00 0.00 0.00 77 1013.3
20260903033504 85 88 2.0 5.0 0.00 0.00 0.00 76 1013.4
20260903033025 85 120 2.0 8.0 0.00 0.00 0.00 76 1013.3
20260903032504 85 154 2.0 7.0 0.00 0.00 0.00 75 1013.2
20260903032006 85 137 2.0 7.0 0.00 0.00 0.00 74 1013.2
20260903031520 85 135 1.0 3.0 0.00 0.00 0.00 74 1013.1
20260903031005 85 89 2.0 5.0 0.00 0.00 0.00 73 1013.1
20260903030505 85 85 2.0 8.0 0.00 0.00 0.00 72 1013.0
20260903030029 85 96 2.0 9.0 0.00 0.00 0.00 72 1012.8
20260903025505 86 134 2.0 9.0 0.00 0.00 0.00 71 1012.8
20260903025005 86 353 2.0 4.0 0.00 0.00 0.00 69 1012.7
20260903024519 86 166 2.0 7.0 0.00 0.00 0.00 69 1012.6
20260903024005 86 135 2.0 7.0 0.00 0.00 0.00 68 1012.5
20260903023504 86 179 2.0 8.0 0.00 0.00 0.00 67 1012.3
20260903023027 86 173 3.0 9.0 0.00 0.00 0.00 67 1012.3
20260903022506 86 116 3.0 10.0 0.00 0.00 0.00 66 1012.2
20260903022004 86 353 3.0 7.0 0.00 0.00 0.00 65 1012.1
20260903021520 86 176 3.0 10.0 0.00 0.00 0.00 65 1012.1
20260903021006 86 353 3.0 11.0 0.00 0.00 0.00 65 1012.1
20260903020504 86 353 3.0 11.0 0.00 0.00 0.00 65 1012.0
20260903020027 86 108 3.0 7.0 0.00 0.00 0.00 65 1012.0
20260903015505 86 220 3.0 9.0 0.00 0.00 0.00 66 1012.0
20260903015005 86 353 3.0 9.0 0.00 0.00 0.00 67 1012.0
20260903014519 86 120 2.0 8.0 0.00 0.00 0.00 69 1012.1
20260903013504 86 353 2.0 6.0 0.00 0.00 0.00 70 1012.2
20260903013028 86 100 3.0 9.0 0.00 0.00 0.00 69 1012.3
20260903012505 87 4 3.0 9.0 0.00 0.00 0.00 68 1012.5
20260903012005 88 25 2.0 9.0 0.00 0.00 0.00 62 1012.5
20260903011519 89 48 2.0 4.0 0.00 0.00 0.00 62 1012.1
20260903011005 89 87 2.0 6.0 0.00 0.00 0.00 60 1011.9
20260903010504 89 125 3.0 8.0 0.00 0.00 0.00 60 1011.5
20260903010025 89 167 4.0 8.0 0.00 0.00 0.00 58 1011.4
20260903005503 89 275 4.0 11.0 0.00 0.00 0.00 58 1011.3
20260903004518 90 353 4.0 10.0 0.00 0.00 0.00 58 1010.9
20260903004004 90 193 3.0 10.0 0.00 0.00 0.00 58 1010.7
20260903003503 90 353 4.0 11.0 0.00 0.00 0.00 57 1010.6
20260903003026 90 239 5.0 11.0 0.00 0.00 0.00 56 1010.7
20260903002503 90 191 4.0 12.0 0.00 0.00 0.00 56 1010.6
20260903002004 91 161 3.0 10.0 0.00 0.00 0.00 58 1010.5
20260903001518 91 175 3.0 9.0 0.00 0.00 0.00 57 1010.6
20260903001004 91 353 4.0 9.0 0.00 0.00 0.00 58 1010.4
20260903000503 91 353 4.0 10.0 0.00 0.00 0.00 58 1010.3
20260903000027 91 166 5.0 15.0 0.00 0.00 0.00 58 1010.2
20260902235004 92 216 3.0 11.0 0.00 0.00 0.00 58 1010.2
20260902234002 92 174 3.0 12.0 0.00 0.00 0.00 59 1010.0
20260902233502 93 146 4.0 12.0 0.00 0.00 0.00 59 1010.0
20260902233028 93 353 4.0 11.0 0.00 0.00 0.00 58 1010.1
20260902232501 93 353 4.0 11.0 0.00 0.00 0.00 57 1010.1
20260902232004 93 116 4.0 13.0 0.00 0.00 0.00 56 1010.2
20260902231517 93 353 4.0 13.0 0.00 0.00 0.00 56 1010.2
20260902231004 93 198 4.0 10.0 0.00 0.00 0.00 56 1010.1
20260902230503 93 353 4.0 10.0 0.00 0.00 0.00 56 1010.0
20260902230028 93 218 4.0 11.0 0.00 0.00 0.00 56 1010.0
20260902225503 94 118 4.0 11.0 0.00 0.00 0.00 56 1010.0
20260902225004 94 155 4.0 15.0 0.00 0.00 0.00 56 1010.1
20260902224518 94 353 5.0 15.0 0.00 0.00 0.00 55 1010.2
20260902224004 94 199 4.0 12.0 0.00 0.00 0.00 56 1010.1
20260902223504 95 222 4.0 9.0 0.00 0.00 0.00 55 1010.2
20260902223025 95 353 4.0 9.0 0.00 0.00 0.00 55 1010.1
20260902222005 95 353 4.0 14.0 0.00 0.00 0.00 54 1010.1
20260902221519 94 353 5.0 14.0 0.00 0.00 0.00 54 1010.1
20260902220502 95 139 4.0 11.0 0.00 0.00 0.00 54 1010.2
20260902220024 95 353 4.0 11.0 0.00 0.00 0.00 54 1010.2
20260902215503 95 135 4.0 10.0 0.00 0.00 0.00 54 1010.2
20260902215005 95 162 4.0 9.0 0.00 0.00 0.00 54 1010.2
20260902214003 95 353 3.0 10.0 0.00 0.00 0.00 53 1010.3
20260902213503 95 153 4.0 11.0 0.00 0.00 0.00 52 1010.3
20260902213023 96 168 4.0 11.0 0.00 0.00 0.00 50 1010.3
20260902212503 96 198 3.0 11.0 0.00 0.00 0.00 50 1010.3
20260902212004 96 177 3.0 10.0 0.00 0.00 0.00 50 1010.4
20260902211518 96 353 3.0 10.0 0.00 0.00 0.00 50 1010.5
20260902211005 95 146 3.0 11.0 0.00 0.00 0.00 50 1010.4
20260902210504 96 153 4.0 11.0 0.00 0.00 0.00 50 1010.6
20260902210026 97 250 4.0 9.0 0.00 0.00 0.00 49 1010.6
20260902205502 96 353 3.0 8.0 0.00 0.00 0.00 51 1010.6
20260902205002 96 235 3.0 10.0 0.00 0.00 0.00 51 1010.6
20260902204517 96 254 4.0 10.0 0.00 0.00 0.00 51 1010.6
20260902204003 96 138 4.0 10.0 0.00 0.00 0.00 50 1010.9
20260902203501 97 202 4.0 10.0 0.00 0.00 0.00 50 1010.9
20260902203026 96 353 3.0 9.0 0.00 0.00 0.00 51 1010.9
20260902202502 96 172 3.0 8.0 0.00 0.00 0.00 50 1010.9
20260902201516 97 145 3.0 10.0 0.00 0.00 0.00 49 1010.9
20260902201003 97 166 3.0 8.0 0.00 0.00 0.00 51 1011.0
20260902200502 96 126 3.0 8.0 0.00 0.00 0.00 51 1011.0
20260902195502 96 65 3.0 6.0 0.00 0.00 0.00 51 1011.3
20260902195002 96 153 3.0 8.0 0.00 0.00 0.00 52 1011.4
20260902194517 96 135 3.0 8.0 0.00 0.00 0.00 51 1011.6
20260902193502 96 263 3.0 8.0 0.00 0.00 0.00 52 1011.8
20260902193028 96 240 3.0 9.0 0.00 0.00 0.00 53 1011.8
20260902192004 95 353 3.0 8.0 0.00 0.00 0.00 53 1011.9
20260902191516 95 238 3.0 8.0 0.00 0.00 0.00 53 1011.9
20260902191003 95 260 3.0 8.0 0.00 0.00 0.00 53 1012.0
20260902190502 96 272 3.0 9.0 0.00 0.00 0.00 52 1012.0
20260902190028 95 235 3.0 9.0 0.00 0.00 0.00 53 1012.1
20260902185502 95 276 3.0 10.0 0.00 0.00 0.00 51 1012.2
20260902185003 95 267 3.0 10.0 0.00 0.00 0.00 53 1012.3
20260902184517 95 259 3.0 8.0 0.00 0.00 0.00 53 1012.5
20260902184005 95 247 3.0 8.0 0.00 0.00 0.00 55 1012.6
20260902183501 94 146 3.0 9.0 0.00 0.00 0.00 54 1012.6
20260902183025 94 262 3.0 9.0 0.00 0.00 0.00 56 1012.7
20260902182501 93 250 3.0 12.0 0.00 0.00 0.00 55 1012.9
20260902182002 94 239 3.0 12.0 0.00 0.00 0.00 54 1013.0
20260902181517 94 230 3.0 10.0 0.00 0.00 0.00 54 1013.0
20260902181004 93 146 3.0 10.0 0.00 0.00 0.00 54 1013.1
20260902180502 93 160 3.0 7.0 0.00 0.00 0.00 55 1013.2
20260902180025 93 270 3.0 12.0 0.00 0.00 0.00 56 1013.3
20260902175501 93 291 3.0 12.0 0.00 0.00 0.00 55 1013.5
20260902175002 93 272 4.0 12.0 0.00 0.00 0.00 55 1013.5
20260902174002 91 268 4.0 9.0 0.00 0.00 0.00 58 1013.8
20260902172002 92 179 4.0 11.0 0.00 0.00 0.00 59 1014.1
20260902171516 92 271 4.0 11.0 0.00 0.00 0.00 60 1014.1
20260902170501 91 147 4.0 10.0 0.00 0.00 0.00 62 1014.2
20260902170025 91 225 3.0 10.0 0.00 0.00 0.00 63 1014.3
20260902165501 90 233 4.0 10.0 0.00 0.00 0.00 62 1014.3
20260902165002 90 278 4.0 10.0 0.00 0.00 0.00 63 1014.4
20260902164517 90 353 4.0 11.0 0.00 0.00 0.00 64 1014.3
20260902163024 88 268 3.0 10.0 0.00 0.00 0.00 69 1014.5
20260902162504 87 262 3.0 7.0 0.00 0.00 0.00 70 1014.5
20260902162002 87 231 3.0 11.0 0.00 0.00 0.00 70 1014.6
20260902161516 87 210 3.0 11.0 0.00 0.00 0.00 71 1014.7
20260902160501 87 214 3.0 9.0 0.00 0.00 0.00 71 1014.6
20260902160024 86 232 3.0 10.0 0.00 0.00 0.00 74 1014.6
20260902155501 85 241 3.0 10.0 0.00 0.00 0.00 75 1014.6
20260902155001 85 198 3.0 8.0 0.00 0.00 0.00 76 1014.6
20260902154516 85 260 3.0 10.0 0.00 0.00 0.00 77 1014.6
20260902154002 84 209 4.0 11.0 0.00 0.00 0.00 78 1014.5
20260902153501 84 207 4.0 11.0 0.00 0.00 0.00 78 1014.6
20260902153023 84 258 3.0 8.0 0.00 0.00 0.00 78 1014.5
20260902152501 84 216 3.0 8.0 0.00 0.00 0.00 79 1014.5